Regional Weather Roundup
Issued by NWS

Home | Current Version | Previous Version | Text Only | Print | Product List | Glossary Off
Versions: 1 2 3 4 5 6 7 8 9 10 11 12 13 14 15 16 17 18 19 20 21 22 23 24 25 26 27 28 29 30 31 32 33 34 35 36 37 38 39 40 41 42 43 44 45 46 47 48 49 50

000
ASUS43 KDTX 152201
RWRMI
MICHIGAN HOURLY REGIONAL WEATHER ROUNDUP
NATIONAL WEATHER SERVICE DETROIT/PONTIAC MI
500 PM EST FRI DEC 15 2017

NOTE: "FAIR" INDICATES FEW OR NO CLOUDS BELOW 12,000 FEET WITH NO
SIGNIFICANT WEATHER AND/OR OBSTRUCTION TO VISIBILITY.

MIZ047>049-052>055-059>063-066>070-074>076-081>083-152300-
SOUTHEAST LOWER MICHIGAN

CITY           SKY/WX    TMP DP  RH WIND       PRES   REMARKS
ADRIAN         CLOUDY    26  15  63 W14       29.87R WCI  14
ALMA           CLOUDY    24  17  75 W8        29.81R WCI  15
ANN ARBOR      CLOUDY    26  17  68 SW16      29.83R WCI  14
BAD AXE        PTCLDY    21  15  75 W9G17     29.74R WCI  11
CARO           CLOUDY    23  13  64 W13       29.77R WCI  11
DETROIT CITY   CLOUDY    26  19  74 SW9       29.82R WCI  17
DETROIT        FLURRIES  30  19  63 W14       29.84R WCI  19
FLINT          FLURRIES  23  18  81 W15       29.80R WCI  10
GROSSE ILE     CLOUDY    28  18  68 W16       29.83R WCI  15
HILLSDALE      CLOUDY    27  16  63 W12G17    29.83R WCI  16
HOWELL         CLOUDY    25  20  83 W14G22    29.80R WCI  13

CITY           SKY/WX    TMP DP  RH WIND       PRES   REMARKS
JACKSON        CLOUDY    26  16  65 SW12      29.83R WCI  16
LAMBERTVILLE   FLURRIES  26  19  74 W10       29.88R WCI  16
LANSING        LGT SNOW  24  20  84 W13       29.83R FOG     WCI  12
LAPEER         LGT SNOW  24  20  85 NW9       29.78R WCI  14
MASON          LGT SNOW  26  19  74 W9        29.82R WCI  17
MT. CLEMENS    LGT SNOW  26  21  82 W10       29.79R WCI  16
PONTIAC        LGT SNOW  23  21  92 W9        29.78R FOG     WCI  13
PORT HOPE        N/A     25  16  68 W9G20     29.71R WCI  15
PORT HURON     CLOUDY    25  18  74 W3        29.79R
TRI CITIES     CLOUDY    23  13  65 W20       29.79R WCI   8
MIDLAND        CLOUDY    25  14  64 W9G20     29.78R WCI  15
TROY           CLOUDY    27  21  78 W10       29.82R WCI  17
SAGINAW HB     CLOUDY    25  14  63 W14       29.79R WCI  13
$$
MIZ043>046-050>051-056>058-064>065-071>073-077>080-152300-
SOUTHWEST LOWER MICHIGAN

CITY           SKY/WX    TMP DP  RH WIND       PRES   REMARKS
BATTLE CREEK   MOCLDY    26  15  63 W12       29.84R WCI  16
BENTON HARBOR  CLOUDY    31  21  66 W21       29.89R WCI  18
BIG RAPIDS     LGT SNOW  21  17  83 W6        29.78R WCI  14
COLDWATER      MOCLDY    26  14  62 W15       29.86R WCI  13
HOLLAND        CLOUDY    28  16  60 W16G28    29.86R WCI  16
GRAND RAPIDS   FLURRIES  26  16  65 W16       29.83R WCI  14
IONIA          FLURRIES  26  19  74 W12G17    29.82R WCI  15
KALAMAZOO      CLOUDY    28  15  58 W10       29.86R WCI  19
LUDINGTON      CLOUDY    24  13  65 NW9G17    29.81R WCI  14
MARSHALL       CLOUDY    26  15  65 W13       29.84R WCI  14
MOUNT PLEASANT CLOUDY    24  14  64 W9        29.78R WCI  14
MUSKEGON       CLOUDY    27  14  58 W15G22    29.85R WCI  15
SOUTH HAVEN    CLOUDY    32  21  64 W9G16     29.87R WCI  24
$$
MIZ016>042-152300-
NORTHERN LOWER MICHIGAN

CITY           SKY/WX    TMP DP  RH WIND       PRES   REMARKS
ALPENA         CLOUDY    24  19  81 SW6       29.67S WCI  17
BEAVER ISLAND  CLOUDY    25  12  58 NW10G17   29.71R WCI  15
BELLAIRE       LGT SNOW  24  22  92 W5        29.74R VSB 1   WCI  18
CADILLAC       LGT SNOW  19  16  86 W8        29.72R WCI   9
CHARLEVOIX     LGT SNOW  25  16  68 W14G32    29.74R VSB 1   WCI  13
FRANKFORT      CLOUDY    25  15  64 NW12G17   29.79R WCI  15
GAYLORD        LGT SNOW  20  14  77 NW9       29.66R WCI   9
GRAYLING       SNOW      21  18  86 W8        29.70R VSB 1/4 WCI  11
HARBOR SPRINGS FLURRIES  24  15  69 NW12G18   29.70R WCI  13
HOUGHTON LAKE  CLOUDY    21  14  74 W13       29.72R WCI   9
MANISTEE       FLURRIES  23  15  71 W16       29.80R WCI  10
OSCODA         CLOUDY    24  15  69 W15G22    29.70R WCI  11
PELLSTON       LGT SNOW  23  17  78 NW10G24   29.70R WCI  12
ROGERS CITY    LGT SNOW  24  21  87 W6        29.68R WCI  17
TRAVERSE CITY  LGT SNOW  24  16  71 W15       29.75R WCI  11
$$
MIZ007>008-015-152300-
EASTERN UPPER MICHIGAN

CITY           SKY/WX    TMP DP  RH WIND       PRES   REMARKS
KINROSS        HVY SNOW  21  19  92 NW18G25   29.64R VSB<1/4 WCI   6
MACKINAC ISLAN CLOUDY    25  16  70 NW15G25   29.67R WCI  12
NEWBERRY       LGT SNOW  19  18  93 NW9G16    29.68R WCI   9
S. S. MARIE    LGT SNOW  22  18  85 NW8       29.64R VSB 1   WCI  12
MUNISING         N/A     20  18  92 NW12G22   29.74R WCI   8
$$
MIZ004>006-011>014-085-152300-
CENTRAL UPPER MICHIGAN

CITY           SKY/WX    TMP DP  RH WIND       PRES   REMARKS
MANISTIQUE     CLOUDY    20  -2  37 NW9       29.73R WCI  10
ESCANABA       CLEAR     20   8  60 W9        29.77R WCI   9
MENOMINEE      CLOUDY    19   9  65 NW7       29.81  WCI  10
SAWYER-GWINN   MOCLDY    16   9  73 NW7       29.72R WCI   6
$$
MIZ001>003-009>011-084-152300-
WESTERN UPPER MICHIGAN

CITY           SKY/WX    TMP DP  RH WIND       PRES   REMARKS
IRON MOUNTAIN  CLOUDY    18   9  68 W10       29.73R WCI   6
HOUGHTON       CLOUDY    14   4  64 NW8       29.73S WCI   3
COPPER HARBOR    N/A     17   8  67 N18G25    29.76R WCI   1
IRONWOOD       FLURRIES  12   5  73 CALM      29.78R
$$

ABBREVIATIONS USED IN REMARKS
   TC - TEMPERATURE IN CELSIUS
  WCI - WIND CHILL INDEX
   HX - HEAT INDEX
  VSB - VISIBILITY





USA.gov is the U.S. government's official web portal to all federal, state and local government web resources and services.